Location: Breitenfeld
(46.8500°N, 15.6333°E)
Time: 03:55:32
(UTC+00:00)

Cosmos 1850 Rocket - Pass Details

Date: 09 April 2020
Orbit: 754 x 786 km, 74.0° (Epoch: 04 June)

Event Time Altitude Azimuth Distance (km) Brightness Sun altitude
Exits shadow 20:24:21 21° 219° (SW) 1,652 5.6 -25.3°
Maximum altitude 20:27:46 62° 295° (WNW) 847 4.3 -25.7°
Drops below altitude 10° 20:32:55 10° 16° (NNE) 2,290 6.8 -26.3°
Sets 20:35:19 0° 20° (NNE) 3,221 7.6 -26.6°
